Tracking 25405 objects as of 26-Jan-2022
HD Live streaming from Space Station
objects crossing your sky now

STARLINK-1907

Track STARLINK-1907 now!
10-day predictions
STARLINK-1907 is classified as:


NORAD ID: 47177
Int'l Code: 2020-088BH
Perigee: 552.8 km
Apogee: 556.0 km
Inclination: 53.1 °
Period: 95.6 minutes
Semi major axis: 6925 km
RCS: Unknown
Launch date: November 25, 2020
Source: United States (US)
Launch site: AIR FORCE EASTERN TEST RANGE (AFETR)
aabbcc
Your satellite tracking list
Your tracking list is empty




NASA's NSSDC Master Catalog

Two Line Element Set (TLE):
1 47177U 20088BH  22025.88548968 -.00000777  00000-0 -33251-4 0  9992
2 47177  53.0522 202.4508 0002317  81.6336 278.4916 15.06396379 65328
Source of the keplerian elements: AFSPC